Regional Weather Roundup
Issued by NWS Burlington, VT

Home | Current Version | Previous Version | Text Only | Print | Product List | Glossary On
Versions: 1 2 3 4 5 6 7 8 9 10 11 12 13 14 15 16 17 18 19 20 21 22 23 24 25 26 27 28 29 30 31 32 33 34 35 36 37 38 39 40 41 42 43 44 45 46 47 48 49 50
000
ASUS41 KBTV 291310
RWRBTV
VERMONT REGIONAL WEATHER ROUNDUP
NATIONAL WEATHER SERVICE BURLINGTON VT
900 AM EDT SAT AUG 29 2015

NOTE: "FAIR" INDICATES FEW OR NO CLOUDS BELOW 12,000 FEET WITH NO
SIGNIFICANT WEATHER AND/OR OBSTRUCTIONS TO VISIBILITY.

* THESE REPORTS ARE NOT UNDER NWS QUALITY CONTROL AND/OR DO NOT
  REPORT WEATHER SUCH AS PRECIPITATION AND FOG.

VTZ001>019-291400-
_____VERMONT_____


CITY           SKY/WX    TMP DP  RH WIND       PRES   REMARKS
BURLINGTON     PTSUNNY   62  56  80 CALM      30.19S
MONTPELIER     FOG       53  53 100 CALM      30.24F VSB<1/4
MORRISVILLE    FOG       55  53  93 CALM      30.22F VSB 3/4
ST. JOHNSBURY*   N/A     54  52  93 MISG      30.20F
LYNDONVILLE*   FOG       52  51  98 CALM      30.23F VSB<1/4
MIDDLEBURY*    FAIR      66  57  73 S3        30.20R
RUTLAND*       MOSUNNY   59  52  77 S3        30.23S
SPRINGFIELD    FOG       52  52 100 CALM      30.22S VSB 1/4
HIGHGATE*      FAIR      63  58  84 S3        30.18S
NEWPORT*       FAIR      56  55  97 CALM      30.21S
BENNINGTON     SUNNY     61  55  81 N3        30.22F
SUTTON*          N/A     54 N/A N/A MISG        N/A

_____LAKE CHAMPLAIN_____


CITY           SKY/WX    TMP DP  RH WIND       PRES   REMARKS

$$

NYZ007-026>031-035-052-083-291400-
_____NORTHERN NEW YORK_____


CITY           SKY/WX    TMP DP  RH WIND       PRES   REMARKS
PLATTSBURGH    MOSUNNY   62  57  83 CALM      30.19R
SARANAC LAKE   PTSUNNY   60  55  83 S5        30.20S
MASSENA        PTSUNNY   61  56  83 S5        30.17F
OGDENSBURG*    SUNNY     63  61  94 SW3       30.16F
POTSDAM*       SUNNY     64  61  88 SW3       30.17S
WATERTOWN      PTSUNNY   64  57  78 CALM      30.16S
FT DRUM        CLOUDY    58  54  85 SE7       30.16S
ALBANY         MOSUNNY   63  56  78 CALM      30.21F
GLENS FALLS    MOSUNNY   61  56  83 S6        30.21S

$$
NHZ002-005-011-291400-
_____NEW HAMPSHIRE_____


CITY           SKY/WX    TMP DP  RH WIND       PRES   REMARKS
LEBANON        FOG       56  55  97 CALM      30.20F VSB 1/2
KEENE          CLOUDY    54  48  82 CALM      30.22F VSB 1/4
MT WASHINGTON  FOG       45  45 100 W22         N/A  VSB 1/16
PLYMOUTH       PTSUNNY   55  54  97 CALM      30.20F FOG
WHITEFIELD     PTSUNNY   55  53  93 CALM      30.22S

$$

_____REGIONAL QUEBEC LOCATIONS_____


CITY           SKY/WX    TMP DP  RH WIND       PRES   REMARKS
MONTREAL       CLOUDY    64  57  77 SW10      30.15F
QUEBEC CITY    CLOUDY    59  57  94 W13       30.12S
SHERBROOKE     CLOUDY    61  57  88 S3        30.18F

_____REGIONAL ONTARIO LOCATIONS_____


CITY           SKY/WX    TMP DP  RH WIND       PRES   REMARKS
OTTAWA         CLOUDY    61  57  88 S7        30.15F

______KEY______
VSB  - VISIBILITY IN MILES
WCI  - WIND CHILL INDEX
HX   - HEAT INDEX
$$
NNNN


USA.gov is the U.S. government's official web portal to all federal, state and local government web resources and services.